Regional Weather Roundup
Issued by NWS

Home | Current Version | Previous Version | Graphics & Text | Print | Product List | Glossary On
Versions: 1 2 3 4 5 6 7 8 9 10 11 12 13 14 15 16 17 18 19 20 21 22 23 24 25 26 27
000
ASUS45 KSLC 201910
RWRUT

UTAH REGIONAL WEATHER ROUNDUP
NATIONAL WEATHER SERVICE SALT LAKE CITY UT
100 PM MDT THU JUL 20 2017

UTZ001>011-023>025-202000-

NORTHERN UTAH

CITY           SKY/WX    TMP DP  RH WIND       PRES   REMARKS
BRIGHAM CITY   MOSUNNY   90  49  25 S12       30.08F
DUGWAY         PTSUNNY   91  49  24 S21G35    30.07F
HILL AFB       MOSUNNY   89  52  27 S21       30.12F
LOGAN          MOSUNNY   90  54  29 CALM      30.08F
OGDEN          PTSUNNY   92  52  25 S16       30.08F
SALT LAKE CITY PTSUNNY   91  55  29 S24G37    30.07F
TOOELE VALLEY  MOSUNNY   91  54  27 S23G33    30.07F
WENDOVER       SUNNY     93  51  23 SE9       30.05F HX  90
HEBER CITY     PTSUNNY   86  46  25 W13       30.19F
WEST JORDAN    PTSUNNY   87  64  46 SE20G25   30.13S

$$

UTZ011>015-024>027-202000-

CENTRAL/NORTHEAST UTAH

CITY           SKY/WX    TMP DP  RH WIND       PRES   REMARKS
PROVO AIRPORT  CLOUDY    87  55  33 VRB6      30.14F
MOAB/CANYONLAN MOSUNNY   91  54  28 MISG      30.12F
DELTA          CLOUDY    86  52  30 S22G31    30.15F
PRICE          MOSUNNY   88  50  27 MISG      30.22F
ROOSEVELT      SUNNY     81  57  44 E5        30.22F
VERNAL         SUNNY     83  60  45 SE6       30.20F

$$

UTZ013>016-019>022-027-202000-

SOUTHERN UTAH

CITY           SKY/WX    TMP DP  RH WIND       PRES   REMARKS
BRYCE CANYON   SUNNY     78  50  37 SE15      30.39F
CEDAR CITY     CLOUDY    81  54  39 S14G23    30.25F
MILFORD        CLOUDY    83  56  39 S17G23    30.19F
ST GEORGE      MOCLDY    90  59  35 W7        30.07F
HANKSVILLE     MOSUNNY   91  50  24 S5        30.13F
BLANDING       MOSUNNY   83  49  30 SW5       30.34F

$$

REGIONAL REPORTS     COLORADO/ARIZONA

CITY           SKY/WX    TMP DP  RH WIND       PRES   REMARKS
CRAIG, CO      SUNNY     88  48  25 W12       30.26F
GRAND JUNCTION SUNNY     89  53  29 VRB5      30.15F
RIFLE, CO      CLOUDY    87  52  29 NW8       30.21F
MONTROSE, CO   SUNNY     88  50  27 VRB5      30.22F
CORTEZ, CO     SUNNY     87  52  29 VRB5      30.26F
COLORADO CITY    N/A     86  57  37 CALM      30.26F
PAGE, AZ       SUNNY     90  55  30 NW7       30.15F
GRAND CANYON   MOSUNNY   78  54  43 W10       30.36F
KINGMAN, AZ    SUNNY     88  56  33 SW12G21   30.13S
FLAGSTAFF, AZ  CLOUDY    61  58  90 NW6       30.39S

$$

REGIONAL REPORTS    NEVADA/IDAHO/WYOMING

CITY           SKY/WX    TMP DP  RH WIND       PRES   REMARKS
LAS VEGAS, NV  CLOUDY    93  63  36 E8        30.01F HX  94
ELY, NY        MOSUNNY   84  49  29 SW7       30.23F
ELKO, NV       SUNNY     89  19   7 SW9       30.14F
POCATELLO, ID  PTSUNNY   80  47  31 W14       30.09S THUNDER
BURLEY, ID     MOSUNNY   82  43  25 W14       30.09S
FORT BRIDGER,  MOCLDY    83  46  27 SW12G18   30.32F
EVANSTON, WY   CLOUDY    82  49  31 SW14G22   30.30F
ROCK SPRINGS,  CLOUDY    82  44  26 S7        30.27F
KEMMERER, WY     N/A     81  43  26 SW8G17    30.30F

$$




USA.gov is the U.S. government's official web portal to all federal, state and local government web resources and services.